Tracking 19817 objects as of 20-Aug-2019
HD Live streaming from Space Station
objects crossing your sky now

FENGYUN 1C DEB

Track FENGYUN 1C DEB now!
10-day predictions


NORAD ID: 29832
Int'l Code: 1999-025EA
Perigee: 578.4 km
Apogee: 869.1 km
Inclination: 98.8 °
Period: 99.1 minutes
Semi major axis: 7094 km
RCS: 0.1 m2 (medium)
Launch date: May 10, 1999
Source: People's Republic of China (PRC)
Launch site: Taiyaun Space Center, China (TSC)

Note: This is SATELLITE DEBRIS
aabbcc
Your satellite tracking list
Your tracking list is empty




NASA's NSSDC Master Catalog

Two Line Element Set (TLE):
1 29832U 99025EA  19230.81797558 -.00000018 +00000-0 +80021-5 0  9990
2 29832 098.8280 173.2239 0204852 080.4590 281.9688 14.52781674667214
Source of the keplerian elements: AFSPC